QPF
0.08 0.08 0.07 0.06 0.04 0.03 0.03 0.04 0.05 0.07 0.08 0.07 0.06 0.08 0.12 0.14 0.15 0.16 0.13 0.16 0.15 0.12 0.11 0.11 0.12 0.13 0.12 0.11 0.09 0.09 0.08 0.09 0.10 0.09 0.10 0.08 0.06 0.04 0.05 0.06 0.06 0.06 0.06
0.06 0.07 0.08 0.07 0.05 0.03 0.03 0.03 0.04 0.06 0.08 0.07 0.05 0.05 0.09 0.12 0.14 0.14 0.13 0.14 0.14 0.15 0.14 0.13 0.13 0.12 0.12 0.11 0.10 0.09 0.08 0.08 0.09 0.09 0.08 0.06 0.06 0.06 0.05 0.05 0.05 0.04 0.04
0.05 0.06 0.08 0.07 0.05 0.04 0.03 0.03 0.03 0.05 0.06 0.06 0.05 0.05 0.07 0.09 0.10 0.08 0.07 0.07 0.08 0.11 0.14 0.15 0.17 0.16 0.14 0.11 0.09 0.08 0.08 0.07 0.08 0.08 0.08 0.06 0.05 0.05 0.06 0.06 0.05 0.05 0.04
0.03 0.05 0.07 0.06 0.05 0.05 0.04 0.04 0.03 0.05 0.06 0.07 0.07 0.04 0.04 0.05 0.05 0.05 0.05 0.04 0.05 0.06 0.08 0.10 0.15 0.20 0.16 0.12 0.11 0.10 0.08 0.07 0.07 0.07 0.09 0.07 0.07 0.06 0.05 0.05 0.05 0.06 0.05
0.04 0.05 0.06 0.07 0.06 0.06 0.05 0.03 0.04 0.07 0.08 0.08 0.06 0.04 0.03 0.04 0.03 0.03 0.04 0.05 0.05 0.06 0.06 0.05 0.06 0.12 0.20 0.17 0.14 0.15 0.12 0.09 0.08 0.07 0.08 0.09 0.08 0.07 0.05 0.04 0.04 0.06 0.06
0.03 0.04 0.06 0.07 0.07 0.06 0.06 0.05 0.05 0.08 0.10 0.07 0.03 0.03 0.04 0.03 0.03 0.03 0.03 0.04 0.04 0.03 0.03 0.02 0.03 0.05 0.13 0.20 0.16 0.14 0.15 0.12 0.11 0.11 0.11 0.11 0.10 0.09 0.07 0.06 0.05 0.05 0.05
0.04 0.06 0.07 0.08 0.07 0.07 0.07 0.06 0.05 0.08 0.08 0.05 0.04 0.04 0.04 0.03 0.03 0.03 0.02 0.03 0.04 0.03 0.02 0.02 0.02 0.04 0.06 0.14 0.18 0.17 0.21 0.23 0.21 0.20 0.20 0.17 0.15 0.14 0.12 0.10 0.08 0.05 0.04
0.06 0.06 0.07 0.08 0.07 0.08 0.07 0.06 0.06 0.07 0.06 0.04 0.05 0.06 0.07 0.06 0.04 0.02 0.02 0.03 0.03 0.04 0.02 0.02 0.02 0.02 0.04 0.06 0.10 0.11 0.13 0.23 0.29 0.27 0.21 0.18 0.18 0.18 0.17 0.14 0.13 0.10 0.06
0.08 0.08 0.06 0.07 0.08 0.07 0.07 0.07 0.07 0.07 0.05 0.04 0.05 0.07 0.08 0.07 0.04 0.03 0.03 0.03 0.03 0.04 0.03 0.03 0.02 0.02 0.03 0.04 0.05 0.07 0.07 0.10 0.16 0.21 0.18 0.13 0.10 0.10 0.10 0.11 0.12 0.11 0.09
0.09 0.09 0.09 0.08 0.09 0.08 0.07 0.06 0.06 0.07 0.06 0.04 0.04 0.05 0.06 0.06 0.05 0.03 0.03 0.03 0.03 0.03 0.03 0.03 0.03 0.03 0.02 0.03 0.03 0.04 0.04 0.06 0.07 0.10 0.14 0.15 0.14 0.10 0.07 0.06 0.06 0.08 0.07
0.08 0.09 0.11 0.11 0.11 0.08 0.08 0.08 0.08 0.08 0.07 0.06 0.06 0.06 0.05 0.04 0.04 0.04 0.04 0.03 0.02 0.03 0.03 0.02 0.04 0.04 0.04 0.03 0.03 0.03 0.03 0.04 0.05 0.05 0.07 0.08 0.10 0.12 0.10 0.09 0.08 0.06 0.06
0.09 0.07 0.08 0.10 0.11 0.09 0.09 0.10 0.11 0.09 0.09 0.08 0.07 0.06 0.06 0.05 0.04 0.03 0.04 0.04 0.03 0.03 0.03 0.03 0.03 0.03 0.04 0.03 0.02 0.01 0.01 0.01 0.03 0.04 0.05 0.06 0.07 0.08 0.09 0.10 0.10 0.07 0.06
0.10 0.07 0.06 0.08 0.09 0.08 0.08 0.09 0.10 0.10 0.11 0.12 0.09 0.07 0.06 0.05 0.03 0.03 0.03 0.03 0.03 0.03 0.02 0.02 0.02 0.02 0.02 0.02 0.02 0.01 0.01 0.01 0.02 0.02 0.03 0.04 0.06 0.08 0.08 0.08 0.09 0.09 0.08
0.08 0.07 0.05 0.06 0.07 0.06 0.06 0.08 0.09 0.10 0.12 0.12 0.10 0.09 0.08 0.07 0.06 0.04 0.04 0.04 0.04 0.04 0.03 0.03 0.02 0.02 0.02 0.02 0.02 0.01 0.01 0.02 0.02 0.02 0.03 0.04 0.05 0.07 0.10 0.11 0.10 0.08 0.08
0.05 0.05 0.04 0.04 0.04 0.05 0.06 0.07 0.09 0.10 0.11 0.11 0.10 0.10 0.08 0.08 0.08 0.07 0.05 0.04 0.04 0.04 0.04 0.04 0.03 0.02 0.02 0.03 0.03 0.02 0.03 0.02 0.02 0.03 0.03 0.04 0.05 0.06 0.07 0.09 0.10 0.10 0.09
0.02 0.03 0.03 0.04 0.04 0.04 0.05 0.05 0.05 0.05 0.07 0.08 0.08 0.08 0.07 0.06 0.07 0.07 0.07 0.06 0.05 0.05 0.05 0.04 0.04 0.02 0.02 0.01 0.02 0.02 0.02 0.02 0.02 0.03 0.03 0.03 0.04 0.05 0.05 0.07 0.08 0.08 0.10
0.03 0.03 0.04 0.06 0.04 0.04 0.03 0.04 0.03 0.04 0.07 0.08 0.06 0.06 0.05 0.05 0.05 0.05 0.05 0.06 0.05 0.05 0.07 0.06 0.04 0.03 0.02 0.03 0.03 0.03 0.02 0.02 0.03 0.03 0.03 0.03 0.03 0.04 0.04 0.05 0.07 0.07 0.07
0.03 0.03 0.04 0.05 0.04 0.03 0.03 0.04 0.04 0.04 0.06 0.06 0.04 0.03 0.03 0.03 0.04 0.04 0.06 0.09 0.07 0.06 0.06 0.06 0.05 0.03 0.02 0.02 0.03 0.03 0.02 0.02 0.03 0.02 0.02 0.03 0.03 0.03 0.04 0.05 0.06 0.07 0.07
0.02 0.03 0.04 0.04 0.03 0.03 0.03 0.04 0.05 0.06 0.06 0.05 0.03 0.02 0.02 0.02 0.02 0.03 0.05 0.08 0.07 0.04 0.03 0.04 0.03 0.03 0.02 0.01 0.03 0.03 0.03 0.03 0.02 0.01 0.02 0.02 0.03 0.03 0.03 0.04 0.04 0.04 0.06
0.02 0.02 0.03 0.02 0.02 0.02 0.02 0.03 0.05 0.08 0.08 0.06 0.04 0.02 0.02 0.03 0.03 0.03 0.03 0.04 0.04 0.04 0.03 0.03 0.03 0.04 0.03 0.02 0.03 0.03 0.03 0.03 0.02 0.01 0.02 0.02 0.02 0.02 0.02 0.03 0.03 0.03 0.02
0.02 0.02 0.02 0.02 0.01 0.01 0.01 0.01 0.02 0.04 0.08 0.10 0.07 0.03 0.03 0.03 0.03 0.03 0.02 0.03 0.04 0.05 0.05 0.04 0.04 0.05 0.05 0.04 0.03 0.04 0.03 0.03 0.03 0.02 0.02 0.02 0.02 0.02 0.02 0.02 0.02 0.02 0.02
0.03 0.03 0.02 0.02 0.01 0.01 0.01 0.01 0.02 0.03 0.04 0.08 0.10 0.07 0.04 0.03 0.03 0.02 0.01 0.01 0.02 0.03 0.04 0.05 0.04 0.04 0.05 0.06 0.05 0.04 0.04 0.04 0.04 0.03 0.03 0.03 0.03 0.03 0.03 0.03 0.03 0.03 0.03
0.03 0.03 0.02 0.02 0.02 0.02 0.02 0.01 0.01 0.02 0.03 0.05 0.07 0.08 0.05 0.03 0.02 0.01 0.01 0.01 0.01 0.01 0.01 0.03 0.04 0.03 0.04 0.06 0.06 0.05 0.05 0.06 0.06 0.05 0.06 0.06 0.06 0.06 0.05 0.04 0.03 0.02 0.02
0.04 0.04 0.04 0.04 0.03 0.03 0.02 0.02 0.02 0.02 0.02 0.02 0.03 0.04 0.04 0.02 0.02 0.02 0.02 0.02 0.02 0.01 0.01 0.01 0.02 0.03 0.02 0.03 0.04 0.04 0.05 0.07 0.07 0.08 0.08 0.07 0.06 0.05 0.04 0.03 0.03 0.02 0.01
0.03 0.02 0.02 0.02 0.02 0.02 0.02 0.02 0.02 0.01 0.01 0.02 0.02 0.02 0.02 0.02 0.02 0.02 0.02 0.02 0.02 0.01 0.00 0.00 0.00 0.01 0.01 0.01 0.01 0.02 0.03 0.04 0.05 0.04 0.03 0.02 0.03 0.03 0.03 0.03 0.03 0.03 0.02
0.02 0.02 0.02 0.02 0.02 0.02 0.02 0.02 0.01 0.01 0.01 0.01 0.01 0.01 0.01 0.02 0.02 0.01 0.01 0.02 0.03 0.02 0.01 0.01 0.01 0.01 0.00 0.00 0.00 0.01 0.02 0.03 0.04 0.05 0.03 0.02 0.02 0.02 0.03 0.02 0.02 0.03 0.03
MSLP
1013.58 1013.54 1013.44 1013.30 1013.14 1012.98 1012.84 1012.73 1012.63 1012.52 1012.38 1012.17 1011.90 1011.57 1011.21 1010.87 1010.58 1010.38 1010.30 1010.33 1010.45 1010.63 1010.85 1011.07 1011.30 1011.53 1011.80 1012.13 1012.54 1013.05 1013.63 1014.28 1014.93 1015.56 1016.12 1016.60 1016.99 1017.32 1017.59 1017.86 1018.14 1018.46 1018.82
1013.98 1013.90 1013.76 1013.57 1013.35 1013.15 1012.96 1012.81 1012.67 1012.54 1012.37 1012.15 1011.85 1011.49 1011.09 1010.68 1010.32 1010.03 1009.84 1009.77 1009.79 1009.90 1010.05 1010.24 1010.45 1010.68 1010.97 1011.32 1011.75 1012.26 1012.86 1013.51 1014.18 1014.82 1015.41 1015.92 1016.36 1016.72 1017.05 1017.35 1017.66 1018.00 1018.37
1014.36 1014.26 1014.09 1013.86 1013.61 1013.36 1013.13 1012.93 1012.76 1012.58 1012.38 1012.13 1011.80 1011.40 1010.95 1010.47 1010.02 1009.62 1009.32 1009.13 1009.04 1009.05 1009.14 1009.29 1009.49 1009.74 1010.03 1010.40 1010.84 1011.36 1011.95 1012.59 1013.26 1013.91 1014.51 1015.06 1015.55 1015.98 1016.36 1016.73 1017.09 1017.47 1017.87
1014.69 1014.58 1014.39 1014.15 1013.87 1013.58 1013.31 1013.07 1012.84 1012.63 1012.39 1012.09 1011.73 1011.29 1010.78 1010.23 1009.68 1009.17 1008.75 1008.43 1008.23 1008.15 1008.17 1008.28 1008.46 1008.71 1009.02 1009.40 1009.84 1010.35 1010.92 1011.54 1012.18 1012.82 1013.44 1014.03 1014.57 1015.08 1015.55 1015.99 1016.43 1016.87 1017.30
1014.92 1014.82 1014.64 1014.39 1014.10 1013.79 1013.48 1013.19 1012.91 1012.65 1012.36 1012.03 1011.63 1011.15 1010.59 1009.97 1009.34 1008.73 1008.19 1007.75 1007.44 1007.26 1007.20 1007.26 1007.42 1007.65 1007.97 1008.34 1008.77 1009.26 1009.80 1010.38 1010.99 1011.61 1012.24 1012.86 1013.46 1014.04 1014.61 1015.16 1015.68 1016.19 1016.68
1015.06 1014.98 1014.81 1014.57 1014.28 1013.95 1013.61 1013.28 1012.96 1012.65 1012.33 1011.96 1011.53 1011.02 1010.43 1009.76 1009.07 1008.37 1007.73 1007.18 1006.75 1006.47 1006.32 1006.32 1006.43 1006.64 1006.94 1007.30 1007.71 1008.16 1008.65 1009.18 1009.74 1010.34 1010.95 1011.59 1012.25 1012.91 1013.57 1014.22 1014.84 1015.43 1015.99
1015.12 1015.05 1014.91 1014.68 1014.40 1014.07 1013.71 1013.35 1013.00 1012.66 1012.31 1011.92 1011.48 1010.96 1010.36 1009.67 1008.93 1008.17 1007.44 1006.79 1006.25 1005.86 1005.61 1005.53 1005.58 1005.75 1006.01 1006.33 1006.71 1007.11 1007.55 1008.01 1008.52 1009.06 1009.65 1010.29 1010.97 1011.69 1012.43 1013.17 1013.89 1014.57 1015.20
1015.12 1015.06 1014.93 1014.73 1014.46 1014.14 1013.78 1013.41 1013.05 1012.69 1012.33 1011.94 1011.51 1011.01 1010.41 1009.73 1008.97 1008.17 1007.37 1006.63 1005.99 1005.48 1005.13 1004.95 1004.92 1005.03 1005.23 1005.51 1005.84 1006.18 1006.55 1006.94 1007.37 1007.84 1008.38 1008.99 1009.67 1010.42 1011.21 1012.02 1012.83 1013.59 1014.30
1015.08 1015.02 1014.90 1014.72 1014.47 1014.17 1013.82 1013.46 1013.09 1012.74 1012.39 1012.03 1011.63 1011.16 1010.60 1009.95 1009.19 1008.37 1007.52 1006.70 1005.96 1005.35 1004.89 1004.61 1004.49 1004.52 1004.66 1004.88 1005.14 1005.42 1005.72 1006.02 1006.36 1006.75 1007.20 1007.75 1008.39 1009.12 1009.93 1010.78 1011.64 1012.48 1013.27
1015.00 1014.93 1014.83 1014.66 1014.43 1014.15 1013.83 1013.48 1013.14 1012.80 1012.48 1012.16 1011.80 1011.38 1010.88 1010.26 1009.53 1008.71 1007.83 1006.96 1006.14 1005.43 1004.86 1004.48 1004.27 1004.22 1004.29 1004.44 1004.64 1004.85 1005.06 1005.28 1005.52 1005.79 1006.15 1006.60 1007.17 1007.85 1008.63 1009.48 1010.37 1011.26 1012.11
1014.90 1014.81 1014.70 1014.55 1014.34 1014.09 1013.79 1013.47 1013.15 1012.84 1012.55 1012.27 1011.96 1011.60 1011.15 1010.58 1009.89 1009.08 1008.20 1007.29 1006.42 1005.63 1004.99 1004.51 1004.22 1004.09 1004.09 1004.18 1004.31 1004.46 1004.59 1004.72 1004.84 1005.01 1005.24 1005.58 1006.04 1006.63 1007.35 1008.18 1009.07 1009.98 1010.87
1014.76 1014.65 1014.54 1014.40 1014.21 1013.97 1013.70 1013.41 1013.11 1012.82 1012.56 1012.30 1012.03 1011.72 1011.32 1010.80 1010.16 1009.39 1008.53 1007.61 1006.71 1005.89 1005.19 1004.65 1004.29 1004.10 1004.04 1004.07 1004.14 1004.22 1004.28 1004.32 1004.35 1004.40 1004.51 1004.72 1005.06 1005.55 1006.19 1006.95 1007.80 1008.71 1009.63
1014.58 1014.47 1014.35 1014.22 1014.04 1013.83 1013.57 1013.29 1013.00 1012.72 1012.46 1012.22 1011.97 1011.68 1011.32 1010.86 1010.27 1009.55 1008.73 1007.84 1006.96 1006.13 1005.41 1004.84 1004.44 1004.20 1004.10 1004.08 1004.10 1004.12 1004.12 1004.08 1004.02 1003.97 1003.97 1004.07 1004.30 1004.68 1005.22 1005.90 1006.69 1007.56 1008.46
1014.40 1014.28 1014.17 1014.04 1013.88 1013.67 1013.42 1013.13 1012.84 1012.54 1012.27 1012.01 1011.76 1011.48 1011.15 1010.72 1010.19 1009.53 1008.77 1007.95 1007.11 1006.32 1005.62 1005.05 1004.64 1004.38 1004.24 1004.18 1004.16 1004.14 1004.08 1003.99 1003.87 1003.75 1003.67 1003.67 1003.80 1004.08 1004.52 1005.11 1005.83 1006.63 1007.48
1014.23 1014.13 1014.02 1013.90 1013.75 1013.54 1013.29 1012.99 1012.67 1012.34 1012.03 1011.73 1011.45 1011.16 1010.83 1010.43 1009.95 1009.37 1008.69 1007.96 1007.20 1006.48 1005.83 1005.29 1004.89 1004.62 1004.46 1004.37 1004.32 1004.26 1004.18 1004.05 1003.89 1003.73 1003.60 1003.55 1003.62 1003.82 1004.17 1004.67 1005.30 1006.01 1006.78
1014.12 1014.04 1013.96 1013.85 1013.71 1013.50 1013.23 1012.91 1012.55 1012.17 1011.80 1011.45 1011.12 1010.80 1010.46 1010.08 1009.65 1009.14 1008.56 1007.93 1007.27 1006.64 1006.06 1005.57 1005.19 1004.92 1004.75 1004.64 1004.56 1004.49 1004.38 1004.24 1004.08 1003.92 1003.78 1003.72 1003.75 1003.90 1004.20 1004.62 1005.15 1005.77 1006.43
1014.09 1014.04 1013.99 1013.91 1013.78 1013.58 1013.30 1012.95 1012.55 1012.12 1011.68 1011.27 1010.88 1010.51 1010.16 1009.79 1009.40 1008.96 1008.47 1007.94 1007.39 1006.85 1006.35 1005.91 1005.56 1005.30 1005.12 1004.99 1004.89 1004.80 1004.70 1004.57 1004.43 1004.29 1004.18 1004.13 1004.17 1004.32 1004.57 1004.93 1005.39 1005.90 1006.45
1014.14 1014.14 1014.12 1014.07 1013.96 1013.76 1013.48 1013.12 1012.68 1012.21 1011.72 1011.25 1010.80 1010.39 1010.02 1009.66 1009.29 1008.91 1008.50 1008.06 1007.61 1007.15 1006.72 1006.33 1006.00 1005.74 1005.55 1005.40 1005.28 1005.18 1005.08 1004.98 1004.88 1004.79 1004.73 1004.73 1004.80 1004.96 1005.20 1005.53 1005.91 1006.34 1006.79
1014.23 1014.28 1014.30 1014.28 1014.20 1014.03 1013.76 1013.39 1012.94 1012.44 1011.92 1011.41 1010.92 1010.48 1010.09 1009.73 1009.39 1009.05 1008.70 1008.33 1007.95 1007.55 1007.17 1006.81 1006.50 1006.23 1006.01 1005.84 1005.71 1005.59 1005.51 1005.43 1005.37 1005.34 1005.35 1005.41 1005.53 1005.72 1005.97 1006.27 1006.62 1006.98 1007.35
1014.34 1014.42 1014.47 1014.49 1014.44 1014.29 1014.05 1013.70 1013.27 1012.77 1012.24 1011.71 1011.21 1010.76 1010.36 1010.00 1009.67 1009.36 1009.05 1008.73 1008.39 1008.03 1007.68 1007.33 1007.01 1006.72 1006.47 1006.27 1006.12 1006.00 1005.91 1005.86 1005.85 1005.87 1005.94 1006.06 1006.23 1006.45 1006.72 1007.02 1007.35 1007.68 1008.00
1014.38 1014.48 1014.57 1014.61 1014.59 1014.48 1014.28 1013.97 1013.57 1013.11 1012.60 1012.09 1011.60 1011.16 1010.76 1010.41 1010.09 1009.80 1009.50 1009.20 1008.88 1008.54 1008.18 1007.83 1007.49 1007.17 1006.90 1006.67 1006.48 1006.35 1006.27 1006.23 1006.24 1006.31 1006.42 1006.58 1006.79 1007.04 1007.33 1007.64 1007.96 1008.28 1008.59
1014.32 1014.43 1014.53 1014.60 1014.61 1014.54 1014.38 1014.12 1013.78 1013.37 1012.91 1012.45 1012.00 1011.58 1011.20 1010.87 1010.56 1010.27 1009.98 1009.68 1009.35 1009.01 1008.64 1008.27 1007.90 1007.55 1007.25 1006.98 1006.78 1006.63 1006.53 1006.50 1006.52 1006.60 1006.73 1006.91 1007.13 1007.40 1007.70 1008.02 1008.35 1008.67 1008.99
1014.14 1014.26 1014.36 1014.44 1014.47 1014.44 1014.32 1014.12 1013.84 1013.50 1013.11 1012.71 1012.32 1011.94 1011.60 1011.28 1010.99 1010.70 1010.41 1010.10 1009.76 1009.39 1009.01 1008.61 1008.22 1007.85 1007.51 1007.23 1007.00 1006.83 1006.72 1006.67 1006.68 1006.75 1006.87 1007.04 1007.25 1007.51 1007.80 1008.12 1008.45 1008.79 1009.14
1013.88 1013.99 1014.09 1014.17 1014.22 1014.20 1014.13 1013.98 1013.76 1013.49 1013.18 1012.84 1012.51 1012.19 1011.88 1011.59 1011.31 1011.03 1010.73 1010.41 1010.05 1009.67 1009.27 1008.86 1008.45 1008.06 1007.71 1007.41 1007.16 1006.97 1006.83 1006.76 1006.74 1006.78 1006.86 1007.00 1007.18 1007.40 1007.66 1007.96 1008.29 1008.64 1009.00
1013.59 1013.69 1013.78 1013.86 1013.91 1013.92 1013.87 1013.76 1013.59 1013.38 1013.13 1012.86 1012.58 1012.31 1012.04 1011.77 1011.51 1011.23 1010.92 1010.59 1010.23 1009.84 1009.43 1009.01 1008.60 1008.22 1007.86 1007.55 1007.29 1007.09 1006.93 1006.83 1006.77 1006.76 1006.79 1006.87 1006.99 1007.16 1007.38 1007.64 1007.95 1008.29 1008.66
1013.34 1013.44 1013.53 1013.61 1013.67 1013.68 1013.64 1013.56 1013.43 1013.25 1013.04 1012.81 1012.58 1012.33 1012.09 1011.84 1011.59 1011.31 1011.01 1010.68 1010.32 1009.93 1009.53 1009.12 1008.72 1008.35 1008.01 1007.71 1007.45 1007.23 1007.06 1006.92 1006.82 1006.76 1006.74 1006.75 1006.81 1006.92 1007.08 1007.29 1007.56 1007.87 1008.21
Thickness
5735 5734 5733 5732 5734 5734 5734 5733 5733 5732 5733 5733 5734 5734 5733 5733 5733 5732 5728 5724 5722 5721 5720 5719 5719 5718 5717 5716 5715 5714 5713 5712 5711 5710 5709 5708 5708 5708 5707 5706 5705 5704 5704
5732 5730 5729 5728 5729 5729 5730 5730 5730 5729 5730 5730 5730 5730 5730 5729 5728 5726 5726 5722 5720 5719 5717 5716 5716 5715 5714 5713 5713 5712 5711 5710 5709 5708 5707 5706 5705 5705 5704 5704 5703 5703 5702
5727 5727 5726 5726 5726 5725 5725 5726 5726 5727 5726 5727 5726 5726 5726 5726 5725 5723 5722 5722 5720 5717 5715 5714 5713 5712 5712 5711 5711 5710 5709 5708 5707 5705 5704 5703 5703 5702 5701 5701 5701 5700 5700
5723 5723 5723 5724 5722 5722 5722 5723 5723 5723 5722 5723 5723 5723 5724 5722 5721 5720 5720 5719 5718 5718 5714 5712 5711 5710 5710 5709 5709 5708 5708 5706 5705 5703 5702 5701 5700 5699 5699 5699 5698 5698 5698
5720 5720 5721 5719 5718 5719 5719 5720 5719 5718 5717 5717 5718 5718 5719 5719 5717 5717 5716 5716 5714 5713 5713 5710 5709 5708 5707 5707 5707 5706 5705 5704 5703 5701 5700 5699 5697 5697 5696 5696 5695 5695 5695
5718 5718 5718 5715 5716 5715 5714 5714 5713 5713 5713 5712 5715 5713 5713 5714 5713 5713 5713 5712 5711 5710 5710 5709 5708 5706 5705 5704 5704 5703 5702 5701 5700 5699 5697 5696 5695 5694 5693 5692 5692 5692 5692
5716 5715 5715 5713 5712 5712 5710 5711 5710 5709 5709 5709 5708 5706 5707 5709 5708 5708 5709 5709 5708 5707 5706 5706 5706 5706 5704 5701 5701 5700 5699 5698 5697 5696 5695 5694 5692 5691 5690 5690 5689 5689 5689
5713 5713 5711 5711 5709 5708 5707 5706 5705 5706 5705 5704 5702 5700 5699 5701 5702 5706 5705 5704 5704 5704 5704 5704 5702 5701 5702 5701 5699 5697 5695 5694 5694 5693 5692 5691 5689 5688 5687 5687 5687 5686 5686
5710 5708 5708 5707 5706 5706 5705 5702 5702 5701 5700 5700 5701 5698 5695 5694 5696 5699 5699 5700 5700 5700 5701 5701 5700 5698 5698 5697 5697 5694 5692 5691 5690 5689 5689 5688 5686 5685 5685 5684 5684 5684 5683
5707 5705 5704 5703 5703 5703 5701 5701 5700 5699 5697 5697 5697 5696 5695 5694 5690 5691 5695 5696 5696 5696 5697 5697 5697 5695 5694 5694 5692 5691 5689 5687 5686 5685 5685 5684 5683 5682 5681 5681 5681 5680 5680
5703 5702 5701 5699 5698 5699 5698 5697 5695 5695 5695 5694 5694 5692 5690 5689 5689 5687 5686 5689 5692 5694 5693 5693 5692 5692 5691 5690 5689 5688 5685 5683 5681 5681 5680 5679 5679 5678 5677 5677 5677 5676 5676
5701 5699 5698 5696 5695 5695 5694 5693 5692 5691 5691 5689 5689 5689 5687 5686 5685 5685 5683 5683 5684 5688 5689 5688 5689 5689 5688 5687 5685 5683 5681 5679 5677 5676 5675 5674 5674 5674 5673 5673 5672 5672 5672
5698 5696 5695 5692 5692 5691 5690 5689 5687 5688 5687 5685 5684 5685 5685 5685 5684 5682 5681 5680 5681 5684 5683 5685 5685 5685 5684 5683 5681 5678 5676 5674 5673 5671 5670 5670 5669 5669 5668 5668 5668 5668 5668
5698 5694 5692 5690 5689 5688 5688 5686 5686 5684 5683 5681 5681 5680 5681 5682 5681 5679 5678 5678 5676 5678 5680 5679 5681 5681 5679 5678 5676 5673 5673 5670 5669 5667 5666 5665 5665 5664 5664 5663 5663 5663 5664
5695 5692 5691 5689 5688 5686 5685 5684 5683 5681 5679 5679 5679 5677 5676 5678 5677 5676 5676 5675 5672 5670 5672 5673 5674 5676 5675 5674 5671 5670 5670 5667 5665 5664 5662 5661 5660 5659 5659 5658 5659 5659 5659
5692 5690 5689 5687 5686 5684 5683 5681 5680 5678 5677 5675 5674 5673 5671 5673 5672 5672 5672 5672 5670 5668 5667 5671 5671 5673 5671 5671 5668 5666 5666 5664 5662 5660 5658 5656 5655 5655 5655 5655 5655 5655 5655
5689 5688 5686 5685 5683 5682 5680 5678 5678 5676 5675 5673 5672 5670 5668 5667 5667 5668 5668 5667 5666 5665 5662 5665 5667 5667 5665 5663 5663 5662 5662 5660 5659 5656 5654 5653 5652 5651 5651 5651 5651 5651 5651
5686 5685 5683 5682 5681 5680 5678 5676 5675 5674 5673 5670 5669 5668 5666 5666 5663 5663 5663 5663 5662 5661 5659 5657 5660 5661 5659 5659 5657 5656 5658 5657 5656 5653 5650 5649 5648 5647 5647 5647 5646 5646 5646
5683 5682 5680 5678 5677 5676 5675 5673 5672 5671 5670 5668 5667 5665 5664 5662 5660 5660 5658 5658 5658 5658 5657 5655 5655 5656 5656 5656 5654 5653 5654 5651 5651 5650 5646 5645 5643 5642 5642 5641 5641 5641 5641
5680 5678 5677 5675 5674 5674 5672 5671 5669 5667 5666 5665 5663 5662 5661 5659 5657 5656 5655 5654 5653 5652 5652 5652 5652 5652 5651 5651 5650 5649 5648 5648 5647 5647 5644 5642 5639 5638 5637 5636 5636 5636 5635
5677 5675 5674 5672 5671 5670 5668 5666 5665 5664 5662 5660 5659 5658 5657 5654 5652 5650 5651 5650 5649 5648 5648 5647 5647 5646 5646 5645 5645 5645 5643 5642 5641 5641 5640 5639 5637 5636 5634 5632 5631 5630 5629
5672 5671 5670 5668 5667 5667 5661 5658 5657 5660 5659 5657 5654 5654 5654 5652 5649 5645 5643 5642 5641 5642 5642 5641 5642 5640 5639 5640 5639 5638 5637 5636 5634 5635 5633 5633 5633 5632 5632 5631 5628 5626 5624
5668 5667 5666 5665 5663 5659 5654 5652 5651 5653 5654 5652 5651 5649 5651 5651 5647 5646 5642 5638 5636 5634 5633 5634 5635 5634 5634 5634 5632 5631 5629 5628 5627 5628 5627 5626 5627 5627 5627 5626 5623 5621 5619
5664 5663 5662 5660 5658 5654 5649 5647 5646 5648 5650 5648 5647 5646 5645 5644 5643 5640 5640 5638 5636 5634 5631 5629 5629 5629 5628 5626 5625 5624 5622 5622 5622 5622 5621 5620 5622 5621 5623 5621 5618 5616 5614
5660 5659 5658 5656 5654 5650 5645 5642 5640 5645 5645 5644 5643 5642 5640 5639 5633 5631 5633 5632 5631 5629 5627 5624 5622 5622 5620 5618 5617 5618 5619 5618 5618 5619 5618 5616 5616 5616 5616 5616 5614 5611 5610
5656 5655 5654 5652 5650 5647 5640 5637 5634 5641 5641 5640 5639 5637 5632 5630 5627 5625 5627 5626 5625 5624 5624 5623 5620 5618 5617 5615 5612 5611 5613 5612 5613 5612 5613 5611 5611 5610 5610 5611 5611 5609 5606